Tracking 30970 objects as of 3-Jul-2025
HD Live streaming from Space Station
objects crossing your sky now

METEOR 2-17 DEB

Track METEOR 2-17 DEB now!
10-day predictions


NORAD ID: 28991
Int'l Code: 1988-005F
Perigee: 859.4 km
Apogee: 889.0 km
Inclination: 82.5 °
Period: 102.3 minutes
Semi major axis: 7245 km
RCS: 0.0099 m2 (small)
Launch date: January 30, 1988
Source: Commonwealth of Independent States (former USSR) (CIS)
Launch site: PLESETSK MISSILE AND SPACE COMPLEX (PKMTR)

Note: This is SATELLITE DEBRIS
Your satellite tracking list
AEROCUBE 6A
Track 1 satellite(s)




NASA's NSSDC Master Catalog

Two Line Element Set (TLE):
1 28991U 88005F   25183.36449500  .00001669  00000-0  97587-3 0  9991
2 28991  82.5295 152.3326 0020423 192.2798 320.3671 14.07761570 16695
Source of the keplerian elements: AFSPC